Regional Weather Roundup
Issued by NWS

Home | Current Version | Previous Version | Graphics & Text | Print | Product List | Glossary On
Versions: 1 2 3 4 5 6 7 8 9 10 11 12 13 14 15 16 17 18 19 20 21 22 23 24 25 26 27 28 29 30 31 32 33 34 35 36 37 38 39 40 41 42 43 44 45 46 47 48 49 50
000
ASUS43 KMKX 011821
RWRWI

WISCONSIN REGIONAL WEATHER ROUNDUP
NATIONAL WEATHER SERVICE MILWAUKEE/SULLIVAN WI
100 PM CDT MON SEP 01 2014

NOTE: "FAIR" INDICATES FEW OR NO CLOUDS BELOW 12,000 FEET WITH NO
SIGNIFICANT WEATHER AND/OR OBSTRUCTIONS TO VISIBILITY.

WIZ001-002-006>008-014>016-023>028-011900-
NORTHWEST WISCONSIN

CITY           SKY/WX    TMP DP  RH WIND       PRES   REMARKS
SUPERIOR ARPT  PTSUNNY   70  59  68 NW15      29.66R
6HR MIN TEMP:  63; 6HR MAX TEMP:  71; 6HR PCP:  0.01;

ASHLAND        CLOUDY    68  58  70 W8G17     29.65S
6HR MIN TEMP:  63; 6HR MAX TEMP:  69; 6HR PCP:  0.27;

HAYWARD        CLOUDY    68  59  73 W7        29.68R
6HR MIN TEMP:  63; 6HR MAX TEMP:  68; 6HR PCP:  0.18;

SIREN          PTSUNNY   70  57  63 NW9       29.70S
6HR MIN TEMP:  63; 6HR MAX TEMP:  71; 6HR PCP:  0.02;

RICE LAKE      PTSUNNY   70  59  68 W13       29.71S
6HR MIN TEMP:  64; 6HR MAX TEMP:  71;

LADYSMITH      PTSUNNY   70  63  79 W14       29.70S
6HR MIN TEMP:  64; 6HR MAX TEMP:  70; 6HR PCP:  0.29;

EAU CLAIRE     MOSUNNY   75  62  64 W9        29.68S
6HR MIN TEMP:  64; 6HR MAX TEMP:  76; 6HR PCP:  0.83;

MENOMONIE      MOCLDY    74  62  65 W12       29.70S
6HR MIN TEMP:  64; 6HR MAX TEMP:  75; 6HR PCP:  0.05;

NEW RICHMOND   PTSUNNY   72  61  68 W10G16    29.72S
6HR MIN TEMP:  63; 6HR MAX TEMP:  72; 6HR PCP:  0.01;

OSCEOLA        CLOUDY    70  63  77 NW7       29.75R
6HR MIN TEMP:  65; 6HR MAX TEMP:  73;

$$

WIZ003>005-009-010-017-018-011900-
NORTH CENTRAL WISCONSIN

CITY           SKY/WX    TMP DP  RH WIND       PRES   REMARKS
WOODRUFF       CLOUDY    69  64  83 W9G17     29.66S
6HR MIN TEMP:  63; 6HR MAX TEMP:  69; 6HR PCP:  0.08;

RHINELANDER    CLOUDY    66  61  84 W15       29.67F
6HR MIN TEMP:  61; 6HR MAX TEMP:  67; 6HR PCP:  0.30;

EAGLE RIVER    CLOUDY    66  63  88 W12       29.65S
LAND O LAKES   CLOUDY    66  64  91 W5        29.65S
6HR MIN TEMP:  64; 6HR MAX TEMP:  66; 6HR PCP:  0.05;

PHILLIPS       CLOUDY    66  62  85 W6        29.67S
6HR MIN TEMP:  62; 6HR MAX TEMP:  67; 6HR PCP:  0.33;

TOMAHAWK       CLOUDY    68  63  85 W7        29.68S
6HR MIN TEMP:  61; 6HR MAX TEMP:  68; 6HR PCP:  0.36;

MEDFORD        CLOUDY    67  63  86 W8        29.68F
6HR MIN TEMP:  61; 6HR MAX TEMP:  67; 6HR PCP:  0.19;

MERRILL        CLOUDY    70  64  81 W12       29.66F
6HR MIN TEMP:  63; 6HR MAX TEMP:  70; 6HR PCP:  0.05;

$$

WIZ029-030-035-036-043>047-011900-
CENTRAL WISCONSIN

CITY           SKY/WX    TMP DP  RH WIND       PRES   REMARKS
WAUSAU         CLOUDY    68  63  84 SW10      29.67S
6HR MIN TEMP:  64; 6HR MAX TEMP:  68; 6HR PCP:  0.13;

MOSINEE        NOT AVBL
MARSHFIELD     CLOUDY    71  65  81 W9        29.69S
6HR MIN TEMP:  63; 6HR MAX TEMP:  70; 6HR PCP:  0.07;

STEVENS POINT  CLOUDY    69  64  84 SW9       29.68F
6HR MIN TEMP:  63; 6HR MAX TEMP:  69; 6HR PCP:  0.10;

WAUPACA        CLOUDY    71  67  86 SW9       29.68F
6HR MIN TEMP:  67; 6HR MAX TEMP:  72; 6HR PCP:  0.28;

WAUTOMA        CLOUDY    69  66  90 SW10      29.70S
6HR MIN TEMP:  67; 6HR MAX TEMP:  70;

WISC RAPIDS    CLOUDY    69  64  84 W10       29.70S
6HR MIN TEMP:  65; 6HR MAX TEMP:  71; 6HR PCP:  0.18;

CAMP DOUGLAS   MOSUNNY   74  69  86 W15G23    29.69F
6HR MIN TEMP:  65; 6HR MAX TEMP:  74; 6HR PCP:  0.11;

$$

WIZ011>013-019>022-031-037>040-048>050-011900-
NORTHEAST WISCONSIN

CITY           SKY/WX    TMP DP  RH WIND       PRES   REMARKS
ANTIGO         CLOUDY    69  63  80 SW14      29.68S
6HR MIN TEMP:  62; 6HR MAX TEMP:  69; 6HR PCP:  0.09;

STURGEON BAY   CLOUDY    68  63  83 W10       29.66F
6HR MIN TEMP:  66; 6HR MAX TEMP:  70;

GREEN BAY      PTSUNNY   71  67  87 SW9       29.68F
6HR MIN TEMP:  66; 6HR MAX TEMP:  71; 6HR PCP:  0.27;

MANITOWOC      LGT RAIN  73  66  78 NW12      29.69F
6HR MIN TEMP:  68; 6HR MAX TEMP:  74; 6HR PCP:  0.17;

APPLETON       PTSUNNY   70  66  88 SW13      29.70S
CLINTONVILLE   CLOUDY    70  64  83 SW10      29.67F
OSHKOSH        CLOUDY    70  66  87 SW6       29.69F
6HR MIN TEMP:  69; 6HR MAX TEMP:  73; 6HR PCP:  0.13;

$$

WIZ032>034-041-042-053>061-011900-
SOUTHWEST WISCONSIN

CITY           SKY/WX    TMP DP  RH WIND       PRES   REMARKS
LA CROSSE      PTSUNNY   78  65  63 W8        29.69F HX  80
6HR MIN TEMP:  66; 6HR MAX TEMP:  78; 6HR PCP:  0.31;

SPARTA         MOSUNNY   75  62  64 W13G20    29.70F
6HR MIN TEMP:  64; 6HR MAX TEMP:  75; 6HR PCP:  0.32;

VIROQUA        MOCLDY    72  69  90 W9        29.73F
6HR MIN TEMP:  64; 6HR MAX TEMP:  72; 6HR PCP:  0.09;

BOSCOBEL       LGT RAIN  74  66  76 SW8       29.73S
6HR MIN TEMP:  67; 6HR MAX TEMP:  74; 6HR PCP:  0.13;

PRAIRIE DU CHI PTSUNNY   76  65  69 SW7       29.72F
6HR MIN TEMP:  66; 6HR MAX TEMP:  76; 6HR PCP:  0.01;

PLATTEVILLE    CLOUDY    74  67  77 SW15      29.76S
6HR MIN TEMP:  65; 6HR MAX TEMP:  75;

$$

WIZ056-057-062-063-064-067-068-011900-
SOUTH CENTRAL WISCONSIN

CITY           SKY/WX    TMP DP  RH WIND       PRES   REMARKS
BARABOO/DELLS  CLOUDY    68  64  84 SW9       29.72S
6HR MIN TEMP:  66; 6HR MAX TEMP:  72; 6HR PCP:  0.03;

LONE ROCK      CLOUDY    76  66  71 W8        29.73S
6HR MIN TEMP:  71; 6HR MAX TEMP:  76; 6HR PCP:  0.07;

WATERTOWN      PTSUNNY   76  66  71 SW14G20   29.71F
6HR MIN TEMP:  68; 6HR MAX TEMP:  77; 6HR PCP:  0.01;

MADISON        CLOUDY    73  64  73 W8        29.73S
6HR MIN TEMP:  69; 6HR MAX TEMP:  76; 6HR PCP: TRACE;

MIDDLETON      CLOUDY    73  64  73 W10       29.73F
6HR MIN TEMP:  69; 6HR MAX TEMP:  76;

MONROE         PTSUNNY   75  64  69 W17       29.75F
JANESVILLE     PTSUNNY   81  63  54 W20G25    29.73F HX  82
$$

WIZ051-052-058>065-066-070>072-011900-
SOUTHEAST WISCONSIN

CITY           SKY/WX    TMP DP  RH WIND       PRES   REMARKS
MILWAUKEE      PTSUNNY   78  64  61 W15G24    29.72F HX  80
6HR MIN TEMP:  71; 6HR MAX TEMP:  79; 6HR PCP:  0.02;

WAUKESHA       MOSUNNY   75  64  69 SW14      29.73
MILWAUKEE/TIMM MOSUNNY   77  63  61 SW14G23   29.73F
RACINE         MOSUNNY   82  67  60 W12G18    29.74F HX  84
6HR MIN TEMP:  73; 6HR MAX TEMP:  82; 6HR PCP: TRACE;

BURLINGTON     MOSUNNY   77  64  65 SW12G18   29.74F
6HR MIN TEMP:  69; 6HR MAX TEMP:  77;

KENOSHA        PTSUNNY   78  67  68 W14       29.74F HX  80
6HR MIN TEMP:  72; 6HR MAX TEMP:  80; 6HR PCP:  0.01;

FOND DU LAC    CLOUDY    74  65  73 SW14G22   29.70F
6HR MIN TEMP:  68; 6HR MAX TEMP:  75; 6HR PCP:  0.12;

SHEBOYGAN      PTSUNNY   77  67  71 SW9G18    29.69F
6HR MIN TEMP:  70; 6HR MAX TEMP:  77; 6HR PCP:  0.10;

WEST BEND      CLOUDY    77  63  61 SW12      29.70F
JUNEAU         CLOUDY    72  64  77 SW14      29.73S
6HR MIN TEMP:  67; 6HR MAX TEMP:  74; 6HR PCP:  0.02;

$$

LSZ147-162-011900-
LAKE SUPERIOR

STATION/POSITION TIME  TEMP    WIND        PRES    WAVE
                       AIR SEA DIR/SP/G            HT/PER
                 (UTC) (F)     (DEG/KT/KT) (MB)    (FT/S)
W MID LAKE BUOY  1750   60 58  250/ 14/ 16 1001.4R   2/ 3
DEVILS ISLAND    1800   63     240/ 16/ 19 1002.8R
PORT WING        1740   65     250/  9/ 15 1004.4R
SAXON HARBOR     1700   68     280/  4/  5 1003.4R
$$

LMZ867-665-643>646-011900-
LAKE MICHIGAN

STATION/POSITION TIME  TEMP    WIND        PRES    WAVE
                       AIR SEA DIR/SP/G            HT/PER
                 (UTC) (F)     (DEG/KT/KT) (MB)    (FT/S)
N MID LAKE BUOY  1750   66 65  240/ 14/ 16 1003.6F   4/ 6
NORTHPORT PIER   1740   68     260/  4/ 22 1003.7F
KEWAUNEE LAKESHO 1800   71     210/  6/  9 1003.9F
SHEBOYGAN LAKESH 1800   75 58  250/  9/ 12 1005.2F
ATWATER BUOY     1800   72     240/ 14/ 17 1007.2F
MILWAUKEE LAKESH 1800   77     240/ 13/ 17   N/A
S MID LAKE BUOY  1750   71 69  220/  8/  8 1006.9F   3/ 5
KENOSHA   LAKESH 1800   78     240/ 11/ 19 1006.8F
$$

TC  - TEMPERATURE IN CELSIUS
VSB - VISIBILITY IN STATUTE MILES
WCI - WIND CHILL INDEX
HX  - HEAT INDEX




USA.gov is the U.S. government's official web portal to all federal, state and local government web resources and services.